Location: Bremen
(53.0793°N, 8.8017°E)
Time: 19:39:37
(UTC+02:00)

Vanguard 3 - Visible Passes

Search period start: 23 April 2024 00:00
Search period end: 03 May 2024 00:00
Orbit: 510 x 3235 km, 33.3° (Epoch: 23 April)

Date Brightness Start Highest point End Pass type
(mag) Time Alt. Az. Time Alt. Az. Time Alt. Az.
23 Apr 10.5 03:38:37 14° S 03:44:48 19° SSE 03:52:13 10° ESE visible
24 Apr 10.7 02:24:45 14° SSE 02:26:37 15° SSE 02:33:12 10° ESE visible
24 Apr 10.2 04:28:56 13° SSW 04:38:43 24° S 04:46:49 10° ESE visible
25 Apr 10.4 03:14:58 18° S 03:20:29 22° SSE 03:29:17 10° ESE visible
25 Apr 10.0 05:20:51 10° SW 05:32:33 27° S 05:40:31 10° SE visible
26 Apr 10.7 02:00:55 17° SSE 02:02:05 17° SSE 02:10:29 10° ESE visible
26 Apr 10.2 04:05:05 16° SSW 04:14:25 27° S 04:23:40 10° ESE visible
27 Apr 11.0 00:46:45 11° SE 00:46:45 11° SE 00:48:22 10° SE visible
27 Apr 10.4 02:50:55 22° S 02:55:56 25° SSE 03:06:02 10° ESE visible
27 Apr 10.0 04:55:07 10° SW 05:08:18 30° S 05:17:18 10° SE visible
28 Apr 10.6 01:36:38 20° SSE 01:37:21 20° SSE 01:47:14 10° ESE visible
28 Apr 10.2 03:40:47 19° SSW 03:49:54 30° S 04:00:18 10° ESE visible
29 Apr 11.0 00:22:13 13° SE 00:22:13 13° SE 00:25:59 10° ESE visible
29 Apr 10.4 02:26:22 24° S 02:31:11 27° SSE 02:42:30 10° ESE visible
29 Apr 10.1 04:30:30 12° SW 04:43:49 33° S 04:53:52 10° SE visible
30 Apr 10.6 01:11:48 22° SSE 01:12:25 22° SSE 01:23:35 10° ESE visible
30 Apr 10.2 03:15:55 21° SSW 03:25:09 33° S 03:36:41 10° ESE visible
30 Apr 10.9 23:57:02 15° SE 23:57:02 15° SE 00:02:36 10° ESE visible
01 May 10.4 02:01:08 26° S 02:06:13 30° SSE 02:18:41 10° ESE visible
01 May 10.1 04:05:14 13° SW 04:19:06 35° S 04:30:13 10° SE visible
02 May 10.5 00:46:04 24° SSE 00:47:18 24° SSE 00:59:35 10° ESE visible
02 May 10.2 02:50:08 22° SW 03:00:12 35° S 03:12:49 10° ESE visible
02 May 10.1 04:58:09 10° WSW 05:12:51 33° SSW 05:23:14 10° SE visible
02 May 10.8 23:30:34 17° SE 23:30:34 17° SE 23:38:39 10° ESE visible
